Hourly Data Report for November 19, 2016

All times are specified in Local Standard Time (LST). Add 1 hour to adjust for Daylight Saving Time where and when it is observed.

KITCHENER/WATERLOO
ONTARIO

43°27'39.000" N
80°22'43.000" W
321.60 m
6144239
71368
YKF

Download Data

Hourly Data (November 2016)
Hourly Data Report for November 19, 2016
Temp Definition
°C
Dew Point Temp Definition
°C
Rel Hum Definition
%
Wind Dir Definition
10's deg

Wind Spd Definition
km/h
Visibility Definition
km
Stn Press Definition
kPa
Hmdx Definition


Wind Chill Definition


Weather Definition


TIME
00:00 Legend Double Dagger 14.9 6.5 57 18 17 16.1 97.23     LegendNANA
01:00 Legend Double Dagger 13.6 6.0 60 18 9 16.1 97.18     LegendNANA
02:00 Legend Double Dagger 11.4 5.3 66 17 9 16.1 97.11     LegendNANA
03:00 Legend Double Dagger 12.4 5.6 63 17 13 16.1 97.04     LegendNANA
04:00 Legend Double Dagger 13.1 5.8 61 17 11 16.1 96.95     LegendNANA
05:00 Legend Double Dagger 12.5 5.7 63 18 13 16.1 96.88     LegendNANA
06:00 Legend Double Dagger 12.6 6.4 66 20 15 16.1 96.80     LegendNANA
07:00 Legend Double Dagger 13.2 9.3 77 24 28 16.1 96.77     LegendNANA
08:00 Legend Double Dagger 9.0 7.5 91 25 22 3.2 96.85     Rain,Fog
09:00 Legend Double Dagger 7.3 6.3 93 23 17 11.3 96.90     Rain
10:00 Legend Double Dagger 6.3 5.1 92 26 24 11.3 96.91     Moderate Rain
11:00 Legend Double Dagger 3.9 2.4 90 26 18 8.1 96.92     Rain,Fog
12:00 Legend Double Dagger 1.8 0.9 94 22 22 6.4 96.95     Rain,Snow
13:00 Legend Double Dagger 2.1 1.4 95 21 17 9.7 96.95     Rain,Fog
14:00 Legend Double Dagger 3.3 2.1 92 20 18 16.1 96.93     LegendNANA
15:00 Legend Double Dagger 4.0 0.5 78 23 22 16.1 96.95     LegendNANA
16:00 Legend Double Dagger 3.5 0.9 83 24 28 16.1 96.94     Rain
17:00 Legend Double Dagger 2.2 0.9 91 25 30 16.1 96.96     Rain
18:00 Legend Double Dagger 2.0 0.2 88 26 22 16.1 97.01     LegendNANA
19:00 Legend Double Dagger 1.0 -0.8 88 28 32 16.1 97.02     Rain
20:00 Legend Double Dagger 0.8 -2.3 80 29 26 16.1 97.02     LegendNANA
21:00 Legend Double Dagger 0.4 -3.0 78 28 24 16.1 97.03     LegendNANA
22:00 Legend Double Dagger -0.5 -3.0 84 27 30 16.1 97.02   -7 Snow
23:00 Legend Double Dagger -0.8 -3.0 85 27 21 16.1 96.98   -6 Snow

Notes on Data Quality.

Legend

  • E = Estimated
  • M = Missing
  • NA = Not Available
  • ‡ = Partner data that is not subject to review by the National Climate Archives
Date modified: